weather.gov     
National Weather Service

Terminal Aerodrome Forecast
NWS Homepage
This page is being discontinued on March 12, 2014.
The same data is available at this site. Please update your bookmarks.
Thank you, and we apologize for the inconvenience.
Please send an email to SR-SRH.Webmaster@noaa.gov with any concerns.


Current Version
Previous Version:    01  02  03  04  05  06  07  08  09  10  11  12  13  14  15  16  17  18  19  20  21  22  23  24  25  26  27  28  29  30  
   31  32  33  34  35  36  37  38  39  40  41  42  43  44  45  46  47  
[Printable]
192
FTUS41 KALY 261600 AAC
TAFALB
TAF AMD
KALB 261612Z 2616/2712 31005KT 1SM -SN BR OVC015
      TEMPO 2616/2620 1/2SM SN FZFG VV006
     FM262000 35008KT 1/2SM SN FG VV004
     FM270200 33010KT 2SM -SN BR OVC008
     FM271000 32006KT P6SM VCSH OVC025=


U.S. Dept. of Commerce
NOAA National Weather Service
1325 East West Highway
Silver Spring, MD 20910
E-mail: w-nws.webmaster@noaa.gov
Page last modified: May 16, 2007
NATIONAL WEATHER SERVICE: for Safety, for Work, for Fun - FOR LIFE